Time,TemperatureF,DewpointF,PressureIn,WindDirection,WindDirectionDegrees,WindSpeedMPH,WindSpeedGustMPH,Humidity,HourlyPrecipIn,Conditions,Clouds,dailyrainin,SoftwareType,DateUTC
2013-10-15 00:26:00,48.1,45.9,30.27,WNW,284,1.0,1.0,92,0.00,CLR,,0.00,WeatherDisplay:10.37,2013-10-15 04:26:00,
2013-10-15 00:56:00,47.3,45.4,30.27,WNW,284,1.0,2.0,93,0.00,CLR,,0.00,WeatherDisplay:10.37,2013-10-15 04:56:00,
2013-10-15 03:21:00,50.3,48.1,30.27,WSW,240,0.0,0.0,92,0.00,CLR,,0.00,WeatherDisplay:10.37,2013-10-15 07:21:00,
2013-10-15 04:46:00,50.4,49.4,30.27,WSW,240,0.0,0.0,96,0.00,CLR,,0.00,WeatherDisplay:10.37,2013-10-15 08:46:00,
2013-10-15 07:11:00,53.0,51.0,30.29,WSW,240,0.0,0.0,93,0.00,CLR,,0.00,WeatherDisplay:10.37,2013-10-15 11:11:00,
2013-10-15 08:21:00,54.6,51.1,30.29,NE,45,3.0,6.0,88,0.00,CLR,,0.00,WeatherDisplay:10.37,2013-10-15 12:21:00,
2013-10-15 09:56:00,57.0,51.6,30.30,NE,44,3.0,6.0,82,0.00,CLR,,0.00,WeatherDisplay:10.37,2013-10-15 13:56:00,
2013-10-15 12:01:00,59.8,51.9,30.28,ENE,70,2.0,10.0,75,0.00,CLR,,0.00,WeatherDisplay:10.37,2013-10-15 16:01:00,
2013-10-15 13:11:00,60.4,51.7,30.27,ESE,102,0.0,4.0,73,0.00,CLR,,0.00,WeatherDisplay:10.37,2013-10-15 17:11:00,
2013-10-15 16:36:00,60.8,52.8,30.22,SSE,151,0.0,1.0,75,0.00,CLR,,0.00,WeatherDisplay:10.37,2013-10-15 20:36:00,
2013-10-15 17:46:00,58.3,52.5,30.22,NE,44,0.0,1.0,81,0.00,CLR,,0.00,WeatherDisplay:10.37,2013-10-15 21:46:00,
2013-10-15 18:46:00,56.6,52.5,30.23,ENE,76,0.0,0.0,86,0.00,CLR,,0.00,WeatherDisplay:10.37,2013-10-15 22:46:00,
2013-10-15 19:11:00,55.9,52.7,30.23,ENE,76,0.0,0.0,89,0.00,CLR,,0.00,WeatherDisplay:10.37,2013-10-15 23:11:00,
2013-10-15 19:21:00,55.8,52.6,30.24,ENE,76,0.0,0.0,89,0.00,CLR,,0.00,WeatherDisplay:10.37,2013-10-15 23:21:00,
2013-10-15 19:31:00,55.6,52.4,30.24,ENE,76,0.0,1.0,89,0.00,CLR,,0.00,WeatherDisplay:10.37,2013-10-15 23:31:00,
2013-10-15 19:36:00,55.5,52.6,30.24,ENE,76,0.0,0.0,90,0.00,CLR,,0.00,WeatherDisplay:10.37,2013-10-15 23:36:00,
2013-10-15 21:36:00,52.1,50.4,30.24,NE,49,0.0,0.0,94,0.00,CLR,,0.00,WeatherDisplay:10.37,2013-10-16 01:36:00,
2013-10-15 21:46:00,51.8,50.4,30.24,NE,49,0.0,0.0,95,0.00,CLR,,0.00,WeatherDisplay:10.37,2013-10-16 01:46:00,
2013-10-15 21:51:00,51.6,50.2,30.24,NE,48,0.0,0.0,95,0.00,CLR,,0.00,WeatherDisplay:10.37,2013-10-16 01:51:00,
2013-10-15 22:01:00,51.4,50.3,30.24,NE,49,0.0,0.0,96,0.00,CLR,,0.00,WeatherDisplay:10.37,2013-10-16 02:01:00,
2013-10-15 22:06:00,51.2,49.8,30.24,NE,49,0.0,0.0,95,0.00,CLR,,0.00,WeatherDisplay:10.37,2013-10-16 02:06:00,
2013-10-15 22:11:00,51.0,49.9,30.23,NE,49,0.0,0.0,96,0.00,CLR,,0.00,WeatherDisplay:10.37,2013-10-16 02:11:00,
2013-10-15 22:16:00,50.9,49.8,30.23,NE,49,0.0,0.0,96,0.00,CLR,,0.00,WeatherDisplay:10.37,2013-10-16 02:16:00,
2013-10-15 22:21:00,50.7,49.6,30.23,NE,49,0.0,0.0,96,0.00,CLR,,0.00,WeatherDisplay:10.37,2013-10-16 02:21:00,
2013-10-15 22:26:00,50.5,49.4,30.23,NE,49,0.0,0.0,96,0.00,CLR,,0.00,WeatherDisplay:10.37,2013-10-16 02:26:00,
2013-10-15 22:31:00,50.3,49.2,30.23,NE,49,0.0,0.0,96,0.00,CLR,,0.00,WeatherDisplay:10.37,2013-10-16 02:31:00,
2013-10-15 22:36:00,50.2,49.4,30.23,NE,49,0.0,0.0,97,0.00,CLR,,0.00,WeatherDisplay:10.37,2013-10-16 02:36:00,
2013-10-15 22:41:00,50.1,49.3,30.23,NE,49,0.0,0.0,97,0.00,CLR,,0.00,WeatherDisplay:10.37,2013-10-16 02:41:00,
2013-10-15 22:46:00,50.1,49.3,30.23,NE,49,0.0,0.0,97,0.00,CLR,,0.00,WeatherDisplay:10.37,2013-10-16 02:46:00,
2013-10-15 22:51:00,49.9,49.1,30.23,NE,49,0.0,0.0,97,0.00,CLR,,0.00,WeatherDisplay:10.37,2013-10-16 02:51:00,
2013-10-15 22:56:00,49.7,48.9,30.23,NE,49,0.0,0.0,97,0.00,CLR,,0.00,WeatherDisplay:10.37,2013-10-16 02:56:00,
2013-10-15 23:06:00,49.2,48.4,30.23,NE,48,0.0,0.0,97,0.00,CLR,,0.00,WeatherDisplay:10.37,2013-10-16 03:06:00,
2013-10-15 23:11:00,49.0,48.2,30.22,NE,48,0.0,0.0,97,0.00,CLR,,0.00,WeatherDisplay:10.37,2013-10-16 03:11:00,
2013-10-15 23:16:00,48.8,48.0,30.22,NE,48,0.0,0.0,97,0.00,CLR,,0.00,WeatherDisplay:10.37,2013-10-16 03:16:00,
2013-10-15 23:21:00,48.7,47.8,30.22,NE,48,0.0,0.0,97,0.00,CLR,,0.00,WeatherDisplay:10.37,2013-10-16 03:21:00,
2013-10-15 23:26:00,48.5,47.7,30.22,NE,48,0.0,0.0,97,0.00,CLR,,0.00,WeatherDisplay:10.37,2013-10-16 03:26:00,
2013-10-15 23:31:00,48.5,47.7,30.22,NE,49,0.0,0.0,97,0.00,CLR,,0.00,WeatherDisplay:10.37,2013-10-16 03:31:00,
2013-10-15 23:36:00,48.6,47.8,30.22,NE,48,0.0,0.0,97,0.00,CLR,,0.00,WeatherDisplay:10.37,2013-10-16 03:36:00,
2013-10-15 23:41:00,48.5,47.7,30.22,NE,49,0.0,0.0,97,0.00,CLR,,0.00,WeatherDisplay:10.37,2013-10-16 03:41:00,
2013-10-15 23:46:00,48.5,47.7,30.21,NE,49,0.0,0.0,97,0.00,CLR,,0.00,WeatherDisplay:10.37,2013-10-16 03:46:00,
2013-10-15 23:51:00,48.4,47.6,30.21,NE,49,0.0,0.0,97,0.00,CLR,,0.00,WeatherDisplay:10.37,2013-10-16 03:51:00,
2013-10-15 23:56:00,48.4,47.6,30.21,NE,48,0.0,0.0,97,0.00,CLR,,0.00,WeatherDisplay:10.37,2013-10-16 03:56:00,